Regional Weather Roundup
Issued by NWS Raleigh/Durham, NC

Home | Current Version | Previous Version | Text Only | Print | Product List | Glossary On
Versions: 1 2 3 4 5 6 7 8 9 10 11 12 13 14 15 16 17 18 19 20 21 22 23 24 25 26 27 28 29 30 31 32 33 34 35 36 37 38 39 40 41 42 43 44 45 46 47 48 49 50
000
ASUS42 KRAH 301710
RWRRAH
NORTH CAROLINA WEATHER ROUNDUP
NATIONAL WEATHER SERVICE RALEIGH NC
100 PM EDT TUE AUG 30 2016

NOTE: "FAIR" INDICATES FEW OR NO CLOUDS BELOW 12,000 FEET WITH NO
SIGNIFICANT WEATHER AND/OR OBSTRUCTIONS TO VISIBILITY.

NCZ001-053-055-056-065-067-301800-
WESTERN NORTH CAROLINA

CITY           SKY/WX    TMP DP  RH WIND       PRES   REMARKS
ASHEVILLE      MOSUNNY   81  60  48 VRB6      30.21F
JEFFERSON      PTSUNNY   74  63  69 CALM      30.27F
MORGANTON      CLOUDY    87  63  45 SE3       30.21F
HICKORY        CLOUDY    84  65  52 NE7       30.16F
RUTHERFORDTON    N/A     84  65  52 NE8       30.16F
MOUNT AIRY     MOSUNNY   86  72  64 E6        30.18F
BOONE          MOSUNNY   79  63  57 SE6       30.28F
$$

NCZ021-022-025-041-071-084-088-301800-
CENTRAL NORTH CAROLINA

CITY           SKY/WX    TMP DP  RH WIND       PRES   REMARKS
CHARLOTTE      PTSUNNY   87  64  46 E6G16     30.13F
GREENSBORO     MOSUNNY   87  66  49 E7        30.13F
WINSTON-SALEM  MOSUNNY   85  65  51 E7        30.15F
RALEIGH-DURHAM MOSUNNY   88  66  48 E5        30.10F
FORT BRAGG     MOSUNNY   89  67  47 E10       30.08F
FAYETTEVILLE   SUNNY     90  66  45 NE9       30.08F
BURLINGTON     SUNNY     88  68  51 MISG      30.11F
LAURINBURG     PTSUNNY   90  63  40 NE7       30.09F
$$

NCZ011-015-027-028-043-044-047-080-103-301800-
NORTHEASTERN NORTH CAROLINA

CITY           SKY/WX    TMP DP  RH WIND       PRES   REMARKS
ROCKY MT-WILSO SUNNY     88  67  49 NE8       30.09F
GREENVILLE     PTSUNNY   88  72  58 NE7       30.08F
WASHINGTON     MOSUNNY   83  74  74 NE9       30.06F
ELIZABETH CITY PTSUNNY   85  73  67 NE14      30.08S
MANTEO         CLOUDY    84  77  78 NE13      30.06S
CAPE HATTERAS  CLOUDY    85  77  77 NE8G17    30.02F HX  95
$$

NCZ078-087-090-091-093-098-101-301800-
SOUTHEASTERN NORTH CAROLINA

CITY           SKY/WX    TMP DP  RH WIND       PRES   REMARKS
LUMBERTON      MOSUNNY   87  69  54 NE7       30.07F
GOLDSBORO      SUNNY     87  68  51 N8        30.07F
KINSTON        SUNNY     86  68  54 NE9       30.08F
KENANSVILLE    CLOUDY    84  70  61 N7        30.08S
NEW BERN       MOSUNNY   84  75  74 N8        30.06F
CHERRY POINT   MOSUNNY   87  75  67 NE10      30.04F HX  96
BEAUFORT       CLOUDY    85  77  77 NE12      30.02F HX  95
JACKSONVILLE   PTSUNNY   86  74  67 N7        30.05F
WILMINGTON     CLOUDY    85  75  72 NW7       30.05F
$$




USA.gov is the U.S. government's official web portal to all federal, state and local government web resources and services.